Wetterdaten: Woche 25.01.10 - 31.01.10 (KW4)
Datum Zeit Temperatur Luftfeuchte Luftdruck Niederschlag Windrichtung Wind
25.01.2010 00:00 -1,7 C 96 % 1023,6 hPa 0,0 l/m N 0,0 km/h (0 Bft)
25.01.2010 01:00 -1,6 C 96 % 1023,5 hPa 0,0 l/m N 0,1 km/h (0 Bft)
25.01.2010 02:00 -1,7 C 96 % 1023,6 hPa 0,0 l/m N 0,1 km/h (0 Bft)
25.01.2010 03:00 -1,8 C 96 % 1023,6 hPa 0,0 l/m N 0,9 km/h (0 Bft)
25.01.2010 04:00 -1,8 C 96 % 1023,5 hPa 0,0 l/m N 0,0 km/h (0 Bft)
25.01.2010 05:00 -1,9 C 96 % 1023,6 hPa 0,0 l/m N 0,3 km/h (0 Bft)
25.01.2010 06:00 -1,7 C 96 % 1023,6 hPa 0,0 l/m N 0,1 km/h (0 Bft)
25.01.2010 07:00 -1,7 C 97 % 1023,9 hPa 0,0 l/m N 0,0 km/h (0 Bft)
25.01.2010 08:00 -1,4 C 97 % 1024,7 hPa 0,2 l/m N 0,5 km/h (0 Bft)
25.01.2010 09:00 -1,0 C 97 % 1025,2 hPa 0,2 l/m N 0,1 km/h (0 Bft)
25.01.2010 10:00 -0,1 C 96 % 1025,7 hPa 0,4 l/m O 1,9 km/h (1 Bft)
25.01.2010 11:00 0,8 C 92 % 1025,9 hPa 0,0 l/m SO 3,6 km/h (1 Bft)
25.01.2010 12:00 0,6 C 94 % 1025,7 hPa 0,0 l/m S-SO 3,2 km/h (1 Bft)
25.01.2010 13:00 1,1 C 93 % 1025,6 hPa 0,0 l/m S-SO 2,3 km/h (1 Bft)
25.01.2010 14:00 1,7 C 92 % 1025,7 hPa 0,0 l/m S-SO 1,7 km/h (1 Bft)
25.01.2010 15:00 1,7 C 91 % 1026,1 hPa 0,0 l/m S-SO 1,7 km/h (1 Bft)
25.01.2010 16:00 1,3 C 92 % 1026,7 hPa 0,0 l/m S-SO 2,0 km/h (1 Bft)
25.01.2010 17:00 0,9 C 94 % 1027,1 hPa 0,0 l/m O-NO 3,7 km/h (1 Bft)
25.01.2010 18:00 0,5 C 95 % 1027,6 hPa 0,0 l/m O-NO 3,6 km/h (1 Bft)
25.01.2010 19:00 0,2 C 95 % 1027,9 hPa 0,0 l/m NO 6,0 km/h (2 Bft)
25.01.2010 20:00 -0,2 C 96 % 1028,3 hPa 0,0 l/m NO 5,6 km/h (1 Bft)
25.01.2010 21:00 -0,4 C 96 % 1028,8 hPa 0,0 l/m NO 6,8 km/h (2 Bft)
25.01.2010 22:00 -0,6 C 96 % 1029,3 hPa 0,0 l/m NO 5,3 km/h (1 Bft)
25.01.2010 23:00 -0,7 C 96 % 1029,4 hPa 0,0 l/m NO 5,3 km/h (1 Bft)
26.01.2010 00:00 -0,8 C 96 % 1029,4 hPa 0,0 l/m NO 6,4 km/h (2 Bft)
26.01.2010 01:00 -1,0 C 95 % 1029,2 hPa 0,0 l/m NO 4,9 km/h (1 Bft)
26.01.2010 02:00 -1,1 C 95 % 1029,3 hPa 0,0 l/m NO 6,1 km/h (2 Bft)
26.01.2010 03:00 -1,3 C 96 % 1029,0 hPa 0,0 l/m NO 4,3 km/h (1 Bft)
26.01.2010 04:00 -1,5 C 95 % 1029,0 hPa 0,0 l/m NO 6,5 km/h (2 Bft)
26.01.2010 05:00 -1,7 C 95 % 1029,0 hPa 0,0 l/m NO 8,9 km/h (2 Bft)
26.01.2010 06:00 -2,0 C 95 % 1029,1 hPa 0,6 l/m NO 5,5 km/h (1 Bft)
26.01.2010 07:00 -2,4 C 95 % 1029,4 hPa 0,8 l/m NO 9,7 km/h (2 Bft)
26.01.2010 08:00 -2,8 C 94 % 1029,6 hPa 0,0 l/m NO 7,9 km/h (2 Bft)
26.01.2010 09:00 -2,7 C 94 % 1030,1 hPa 0,2 l/m NO 12,4 km/h (3 Bft)
26.01.2010 10:00 -2,5 C 94 % 1030,3 hPa 0,4 l/m NO 13,0 km/h (3 Bft)
26.01.2010 11:00 -2,5 C 93 % 1030,3 hPa 0,2 l/m NO 11,7 km/h (2 Bft)
26.01.2010 12:00 -2,4 C 92 % 1030,0 hPa 0,2 l/m NO 14,9 km/h (3 Bft)
26.01.2010 13:00 -2,6 C 87 % 1029,9 hPa 0,0 l/m NO 18,6 km/h (3 Bft)
26.01.2010 14:00 -3,7 C 88 % 1029,9 hPa 0,0 l/m NO 17,0 km/h (3 Bft)
26.01.2010 15:00 -4,6 C 89 % 1030,4 hPa 0,0 l/m NO 17,8 km/h (3 Bft)
26.01.2010 16:00 -5,3 C 89 % 1031,1 hPa 0,0 l/m NO 19,3 km/h (3 Bft)
26.01.2010 17:00 -5,5 C 90 % 1031,8 hPa 0,0 l/m NO 12,4 km/h (3 Bft)
26.01.2010 18:00 -5,6 C 90 % 1032,1 hPa 0,0 l/m NO 14,8 km/h (3 Bft)
26.01.2010 19:00 -5,8 C 91 % 1032,3 hPa 0,0 l/m NO 17,4 km/h (3 Bft)
26.01.2010 20:00 -5,9 C 91 % 1032,1 hPa 0,0 l/m NO 17,2 km/h (3 Bft)
26.01.2010 21:00 -5,9 C 93 % 1032,2 hPa 0,0 l/m NO 17,0 km/h (3 Bft)
26.01.2010 22:00 -5,9 C 93 % 1032,3 hPa 0,0 l/m NO 19,2 km/h (3 Bft)
26.01.2010 23:00 -6,0 C 91 % 1032,8 hPa 0,0 l/m NO 20,0 km/h (4 Bft)
27.01.2010 00:00 -6,2 C 91 % 1032,7 hPa 0,0 l/m NO 18,2 km/h (3 Bft)
27.01.2010 01:00 -6,4 C 92 % 1032,3 hPa 0,0 l/m NO 12,0 km/h (2 Bft)
27.01.2010 02:00 -6,7 C 91 % 1032,1 hPa 0,0 l/m NO 14,1 km/h (3 Bft)
27.01.2010 03:00 -7,6 C 90 % 1032,0 hPa 0,0 l/m NO 18,1 km/h (3 Bft)
27.01.2010 04:00 -8,1 C 91 % 1031,8 hPa 0,0 l/m NO 13,2 km/h (3 Bft)
27.01.2010 05:00 -8,4 C 91 % 1031,5 hPa 0,0 l/m NO 13,0 km/h (3 Bft)
27.01.2010 06:00 -8,6 C 91 % 1031,2 hPa 0,0 l/m NO 13,2 km/h (3 Bft)
27.01.2010 07:00 -8,6 C 92 % 1031,1 hPa 0,0 l/m NO 10,3 km/h (2 Bft)
27.01.2010 08:00 -8,6 C 92 % 1031,0 hPa 0,0 l/m NO 11,0 km/h (2 Bft)
27.01.2010 09:00 -8,4 C 92 % 1030,8 hPa 0,0 l/m NO 8,2 km/h (2 Bft)
27.01.2010 10:00 -7,9 C 91 % 1030,7 hPa 0,0 l/m NO 6,0 km/h (2 Bft)
27.01.2010 11:00 -7,4 C 88 % 1030,2 hPa 0,0 l/m NO 6,4 km/h (2 Bft)
27.01.2010 12:00 -7,0 C 87 % 1029,2 hPa 0,0 l/m NO 5,2 km/h (1 Bft)
27.01.2010 13:00 -6,5 C 85 % 1027,9 hPa 0,0 l/m NO 4,5 km/h (1 Bft)
27.01.2010 14:00 -6,1 C 84 % 1027,0 hPa 0,0 l/m NO 3,5 km/h (1 Bft)
27.01.2010 15:00 -6,0 C 84 % 1026,3 hPa 0,0 l/m NO 6,5 km/h (2 Bft)
27.01.2010 16:00 -6,5 C 85 % 1026,0 hPa 0,0 l/m NO 5,6 km/h (1 Bft)
27.01.2010 17:00 -7,1 C 88 % 1025,1 hPa 0,0 l/m NO 7,5 km/h (2 Bft)
27.01.2010 18:00 -7,2 C 89 % 1024,2 hPa 0,0 l/m NO 12,2 km/h (2 Bft)
27.01.2010 19:00 -7,1 C 91 % 1023,7 hPa 0,0 l/m NO 8,7 km/h (2 Bft)
27.01.2010 20:00 -6,7 C 91 % 1022,7 hPa 0,0 l/m NO 8,8 km/h (2 Bft)
27.01.2010 21:00 -6,3 C 91 % 1021,2 hPa 0,0 l/m NO 11,0 km/h (2 Bft)
27.01.2010 22:00 -5,9 C 91 % 1019,6 hPa 0,0 l/m NO 13,3 km/h (3 Bft)
27.01.2010 23:00 -5,6 C 91 % 1018,1 hPa 0,0 l/m NO 19,7 km/h (3 Bft)
28.01.2010 00:00 -5,3 C 91 % 1016,9 hPa 0,0 l/m NO 15,4 km/h (3 Bft)
28.01.2010 01:00 -4,8 C 89 % 1016,0 hPa 0,0 l/m NO 19,2 km/h (3 Bft)
28.01.2010 02:00 -4,7 C 91 % 1014,6 hPa 0,4 l/m NO 23,7 km/h (4 Bft)
28.01.2010 03:00 -4,7 C 94 % 1013,3 hPa 0,8 l/m NO 25,6 km/h (4 Bft)
28.01.2010 04:00 -4,5 C 95 % 1012,4 hPa 0,8 l/m NO 27,1 km/h (4 Bft)
28.01.2010 05:00 -4,3 C 94 % 1012,0 hPa 0,4 l/m NO 31,5 km/h (5 Bft)
28.01.2010 06:00 -3,9 C 94 % 1011,6 hPa 0,4 l/m NO 24,8 km/h (4 Bft)
28.01.2010 07:00 -3,8 C 93 % 1011,6 hPa 0,6 l/m NO 22,4 km/h (4 Bft)
28.01.2010 08:00 -3,7 C 94 % 1011,4 hPa 0,2 l/m NO 20,2 km/h (4 Bft)
28.01.2010 09:00 -3,1 C 92 % 1011,3 hPa 0,2 l/m NO 23,8 km/h (4 Bft)
28.01.2010 10:00 -2,6 C 90 % 1011,1 hPa 0,0 l/m NO 27,5 km/h (4 Bft)
28.01.2010 11:00 -1,7 C 87 % 1010,9 hPa 0,4 l/m W-SW 20,1 km/h (4 Bft)
28.01.2010 12:00 -1,3 C 87 % 1010,4 hPa 0,2 l/m W-SW 17,8 km/h (3 Bft)
28.01.2010 13:00 -1,3 C 88 % 1009,7 hPa 0,0 l/m W-SW 17,7 km/h (3 Bft)
28.01.2010 14:00 -0,8 C 86 % 1009,1 hPa 0,0 l/m SW 18,8 km/h (3 Bft)
28.01.2010 15:00 -1,5 C 88 % 1008,8 hPa 0,0 l/m SW 24,3 km/h (4 Bft)
28.01.2010 16:00 -1,9 C 90 % 1008,5 hPa 0,0 l/m W-SW 21,0 km/h (4 Bft)
28.01.2010 17:00 -2,2 C 91 % 1008,2 hPa 0,0 l/m W-SW 17,6 km/h (3 Bft)
28.01.2010 18:00 -2,3 C 91 % 1007,9 hPa 0,0 l/m W-SW 15,8 km/h (3 Bft)
28.01.2010 19:00 -2,3 C 90 % 1007,4 hPa 0,0 l/m W 18,9 km/h (3 Bft)
28.01.2010 20:00 -2,1 C 89 % 1007,0 hPa 0,0 l/m W-SW 19,0 km/h (3 Bft)
28.01.2010 21:00 -2,0 C 89 % 1006,6 hPa 0,0 l/m W 24,1 km/h (4 Bft)
28.01.2010 22:00 -1,9 C 90 % 1006,2 hPa 0,0 l/m W-SW 20,5 km/h (4 Bft)
28.01.2010 23:00 -1,8 C 89 % 1005,7 hPa 0,0 l/m W 18,8 km/h (3 Bft)
29.01.2010 00:00 -1,8 C 89 % 1004,8 hPa 0,0 l/m W-SW 17,0 km/h (3 Bft)
29.01.2010 01:00 -1,6 C 89 % 1004,0 hPa 0,0 l/m SW 22,1 km/h (4 Bft)
29.01.2010 02:00 -1,6 C 90 % 1003,2 hPa 0,0 l/m W-SW 22,0 km/h (4 Bft)
29.01.2010 03:00 -1,6 C 91 % 1002,5 hPa 0,0 l/m W 20,6 km/h (4 Bft)
29.01.2010 04:00 -1,6 C 92 % 1001,8 hPa 0,0 l/m W-SW 20,1 km/h (4 Bft)
29.01.2010 05:00 -1,7 C 94 % 1001,1 hPa 0,0 l/m W-SW 21,3 km/h (4 Bft)
29.01.2010 06:00 -1,7 C 94 % 1000,0 hPa 0,2 l/m W-SW 22,1 km/h (4 Bft)
29.01.2010 07:00 -1,8 C 94 % 999,3 hPa 0,0 l/m SW 16,8 km/h (3 Bft)
29.01.2010 08:00 -1,9 C 95 % 998,5 hPa 0,4 l/m SW 17,8 km/h (3 Bft)
29.01.2010 09:00 -1,5 C 95 % 997,9 hPa 0,6 l/m SW 20,9 km/h (4 Bft)
29.01.2010 10:00 -0,9 C 93 % 997,3 hPa 0,2 l/m W-SW 18,2 km/h (3 Bft)
29.01.2010 11:00 -0,2 C 91 % 996,1 hPa 0,0 l/m W-SW 23,3 km/h (4 Bft)
29.01.2010 12:00 -0,0 C 89 % 994,6 hPa 0,0 l/m W-SW 26,3 km/h (4 Bft)
29.01.2010 13:00 0,1 C 90 % 992,8 hPa 0,0 l/m S-SW 23,0 km/h (4 Bft)
29.01.2010 14:00 0,0 C 91 % 991,2 hPa 0,0 l/m SW 25,1 km/h (4 Bft)
29.01.2010 15:00 -0,1 C 92 % 989,9 hPa 0,0 l/m SW 26,0 km/h (4 Bft)
29.01.2010 16:00 -0,4 C 94 % 988,6 hPa 0,2 l/m SW 25,3 km/h (4 Bft)
29.01.2010 17:00 -0,5 C 95 % 987,7 hPa 0,2 l/m SW 27,5 km/h (4 Bft)
29.01.2010 18:00 -0,3 C 95 % 987,0 hPa 0,0 l/m SW 28,8 km/h (5 Bft)
29.01.2010 19:00 -0,2 C 95 % 986,2 hPa 0,2 l/m SW 24,4 km/h (4 Bft)
29.01.2010 20:00 0,0 C 96 % 985,7 hPa 0,0 l/m SW 29,8 km/h (5 Bft)
29.01.2010 21:00 0,3 C 96 % 985,5 hPa 0,2 l/m SW 31,8 km/h (5 Bft)
29.01.2010 22:00 0,6 C 95 % 985,3 hPa 0,2 l/m W 33,5 km/h (5 Bft)
29.01.2010 23:00 0,7 C 95 % 985,5 hPa 0,0 l/m W-SW 28,7 km/h (4 Bft)
30.01.2010 00:00 0,8 C 95 % 985,6 hPa 0,2 l/m W-SW 21,6 km/h (4 Bft)
30.01.2010 01:00 0,7 C 94 % 986,2 hPa 0,2 l/m W-NW 22,2 km/h (4 Bft)
30.01.2010 02:00 -0,1 C 94 % 987,4 hPa 0,0 l/m NW 11,3 km/h (2 Bft)
30.01.2010 03:00 -0,5 C 93 % 988,9 hPa 0,0 l/m W 7,4 km/h (2 Bft)
30.01.2010 04:00 -0,8 C 91 % 990,0 hPa 0,0 l/m W-NW 8,9 km/h (2 Bft)
30.01.2010 05:00 -1,2 C 91 % 990,8 hPa 0,0 l/m W 9,4 km/h (2 Bft)
30.01.2010 06:00 -1,6 C 90 % 991,4 hPa 0,0 l/m W 6,3 km/h (2 Bft)
30.01.2010 07:00 -2,1 C 90 % 991,9 hPa 0,0 l/m W-NW 9,0 km/h (2 Bft)
30.01.2010 08:00 -2,4 C 93 % 992,8 hPa 0,2 l/m SW 5,5 km/h (1 Bft)
30.01.2010 09:00 -2,3 C 91 % 993,6 hPa 0,0 l/m W-SW 6,7 km/h (2 Bft)
30.01.2010 10:00 -0,8 C 87 % 994,1 hPa 0,0 l/m W-SW 10,2 km/h (2 Bft)
30.01.2010 11:00 0,1 C 80 % 994,6 hPa 0,0 l/m SW 15,0 km/h (3 Bft)
30.01.2010 12:00 0,7 C 73 % 994,6 hPa 0,0 l/m W 7,8 km/h (2 Bft)
30.01.2010 13:00 0,6 C 71 % 994,2 hPa 0,0 l/m N 0,0 km/h (0 Bft)
30.01.2010 14:00 -0,3 C 77 % 994,4 hPa 0,2 l/m N 0,0 km/h (0 Bft)
30.01.2010 15:00 -1,0 C 80 % 994,8 hPa 0,0 l/m W-NW 2,0 km/h (1 Bft)
30.01.2010 16:00 -1,4 C 77 % 995,3 hPa 0,0 l/m SW 12,3 km/h (3 Bft)
30.01.2010 17:00 -3,0 C 81 % 996,0 hPa 0,0 l/m W-SW 10,5 km/h (2 Bft)
30.01.2010 18:00 -3,7 C 83 % 996,6 hPa 0,0 l/m W 18,0 km/h (3 Bft)
30.01.2010 19:00 -3,9 C 85 % 997,0 hPa 0,0 l/m W 13,4 km/h (3 Bft)
30.01.2010 20:00 -4,9 C 87 % 998,2 hPa 0,0 l/m S 5,9 km/h (2 Bft)
30.01.2010 21:00 -4,8 C 91 % 998,8 hPa 0,0 l/m W-SW 7,8 km/h (2 Bft)
30.01.2010 22:00 -4,5 C 90 % 999,6 hPa 0,0 l/m W-SW 10,5 km/h (2 Bft)
30.01.2010 23:00 -4,7 C 90 % 1000,3 hPa 0,2 l/m SW 10,9 km/h (2 Bft)
31.01.2010 00:00 -4,9 C 91 % 1000,7 hPa 0,0 l/m SW 10,9 km/h (2 Bft)
31.01.2010 01:00 -5,2 C 92 % 1001,1 hPa 0,0 l/m SW 6,4 km/h (2 Bft)
31.01.2010 02:00 -5,5 C 92 % 1001,7 hPa 0,0 l/m W 6,0 km/h (2 Bft)
31.01.2010 03:00 -5,3 C 91 % 1002,4 hPa 0,0 l/m W 8,3 km/h (2 Bft)
31.01.2010 04:00 -5,5 C 88 % 1003,0 hPa 0,0 l/m W-NW 4,9 km/h (1 Bft)
31.01.2010 05:00 -7,5 C 86 % 1003,7 hPa 0,0 l/m N 1,1 km/h (0 Bft)
31.01.2010 06:00 -9,7 C 87 % 1004,3 hPa 0,0 l/m N 2,5 km/h (1 Bft)
31.01.2010 07:00 -10,7 C 89 % 1005,1 hPa 0,0 l/m N 1,5 km/h (1 Bft)
31.01.2010 08:00 -11,3 C 90 % 1006,0 hPa 0,0 l/m N 1,9 km/h (1 Bft)
31.01.2010 09:00 -9,9 C 94 % 1006,4 hPa 0,0 l/m S 4,1 km/h (1 Bft)
31.01.2010 10:00 -5,5 C 90 % 1006,7 hPa 0,0 l/m S-SW 18,1 km/h (3 Bft)
31.01.2010 11:00 -3,6 C 85 % 1007,1 hPa 0,0 l/m S-SW 17,8 km/h (3 Bft)
31.01.2010 12:00 -3,0 C 84 % 1007,4 hPa 0,0 l/m SW 22,2 km/h (4 Bft)
31.01.2010 13:00 -2,9 C 85 % 1007,4 hPa 0,0 l/m SW 18,0 km/h (3 Bft)
31.01.2010 14:00 -3,5 C 87 % 1007,8 hPa 0,0 l/m W-SW 22,0 km/h (4 Bft)
31.01.2010 15:00 -3,5 C 89 % 1008,3 hPa 0,2 l/m SW 15,7 km/h (3 Bft)
31.01.2010 16:00 -3,8 C 88 % 1008,7 hPa 0,0 l/m SW 15,8 km/h (3 Bft)
31.01.2010 17:00 -3,9 C 89 % 1009,4 hPa 0,0 l/m W-SW 15,2 km/h (3 Bft)
31.01.2010 18:00 -4,1 C 90 % 1010,3 hPa 0,0 l/m W-SW 9,4 km/h (2 Bft)
31.01.2010 19:00 -4,0 C 90 % 1010,7 hPa 0,0 l/m W-SW 7,9 km/h (2 Bft)
31.01.2010 20:00 -4,0 C 90 % 1011,3 hPa 0,0 l/m W-SW 7,0 km/h (2 Bft)
31.01.2010 21:00 -4,1 C 91 % 1011,7 hPa 0,0 l/m SW 6,3 km/h (2 Bft)
31.01.2010 22:00 -4,2 C 91 % 1012,0 hPa 0,0 l/m SW 8,4 km/h (2 Bft)
31.01.2010 23:00 -4,4 C 92 % 1012,1 hPa 0,0 l/m SW 7,8 km/h (2 Bft)
Min-Datum _ 31.01.10 30.01.10 29.01.10 - - 25.01.10
_ Min-Zeit 08:15 13:10 22:25 - - 00:00
Minimum _ -11,4 C 69 % 985,1 hPa - - 0,0 km/h (0 Bft)
Max-Datum _ 25.01.10 25.01.10 26.01.10 26.01.10 - 29.01.10
_ Max-Zeit 14:45 06:20 23:10 07:00 - 21:50
Maximum _ 1,8 C 97 % 1032,9 hPa 0,8 l/m - 41,8 km/h
W-SW (6 Bft)
Durchschnitt _ -3,1 C 91 % 1012,8 hPa #11,2 l/m NO 12,9 km/h (3 Bft)